www.pogodaiklimat.ru
ПОГОДА в Индиане
Время
и дата
11:55 24.06
12:15 24.06
12:35 24.06
12:55 24.06
13:15 24.06
13:35 24.06
13:55 24.06
14:15 24.06
14:35 24.06
14:55 24.06
15:15 24.06
15:35 24.06
15:55 24.06
16:15 24.06
16:35 24.06
16:55 24.06
17:35 24.06
17:55 24.06
18:15 24.06
18:35 24.06
18:55 24.06
19:35 24.06
19:55 24.06
20:15 24.06
20:35 24.06
20:55 24.06
21:15 24.06
21:35 24.06
21:55 24.06
22:15 24.06
22:35 24.06
22:55 24.06
23:15 24.06
23:35 24.06
23:55 24.06
00:15 25.06
00:35 25.06
00:55 25.06
01:15 25.06
01:35 25.06
01:55 25.06
02:15 25.06
02:35 25.06
02:55 25.06
03:15 25.06
03:35 25.06
03:55 25.06
04:15 25.06
Ветер
(напр.,м/с)
Видим. Явления Облачность Т
(С)
Тd
(С)
f
(%)
Тe
(С)
Тes
(С)
Комфортность P
(гПа)
Po
(гПа)
Тmin
(С)
Tmax
(С)
R
(мм)
R24
(мм)
S
(см)
нст 2
{9}
16 км 8/8 1410 м +24.0 +13.0 50 +26 +30 жарко 964.8
С 5
{8}
16 км 5/5 1410 м +25.0 +13.0 47 +27 +32 жарко 964.5
СЗ 4
{7}
16 км 5/5 1500 м +25.0 +13.0 47 +27 +34 жарко 964.5
С 4 16 км 8/5 1440 m
[Ac]
+24.0 +12.0 47 +26 +30 жарко 964.5
СВ 5 16 км 5/5 1440 м +25.0 +13.0 47 +27 +32 жарко 964.5
СЗ 4
{7}
16 км 8/5 1500 m
[Ac]
+25.0 +13.0 47 +27 +31 жарко 964.5
С 3
{8}
16 км 5/5 1500 m
[Ac]
+25.0 +13.0 47 +27 +35 жарко 964.5
СЗ 4
{7}
16 км 8/2 1650 m
[Ac]
+26.0 +13.0 45 +28 +32 жарко 964.5
СЗ 4 16 км 8/5 1800 m
[Ac]
+25.0 +12.0 44 +27 +30 жарко 964.5
С 4
{7}
16 км 8/5 1800 m
[Ac]
+27.0 +13.0 42 +29 +32 жарко 964.5
С 5
{9}
16 км 5/5 1650 m
[Ac]
+27.0 +13.0 42 +29 +32 жарко 964.5
С 5
{8}
16 км 2/2 1800 м +27.0 +12.0 39 +28 +34 жарко 964.5
СЗ 5
{7}
16 км 5/5 1800 m
[Ac]
+27.0 +12.0 39 +28 +32 жарко 964.5
С 5 16 км 5/2 1800 m
[Ac]
+26.0 +11.0 39 +27 +30 жарко 964.5
СЗ 5 16 км 5/0 2100 m
[Ac]
+27.0 +12.0 39 +28 +31 жарко 964.5
С 5
{8}
16 км 5/0 2100 m
[Ac]
+27.0 +11.0 37 +28 +31 жарко 964.2
СЗ 2
{5}
16 км 2/2 1950 м +26.0 +12.0 42 +27 +32 жарко 964.5
СЗ 5 16 км 5/5 1950 m
[Ac]
+26.0 +12.0 42 +27 +29 жарко 964.8
СЗ 4
{7}
16 км 2/2 1950 м +25.0 +11.0 41 +26 +27 жарко 965.2
СЗ 2 16 км ясно +25.0 +11.0 41 +26 +28 жарко 965.2
штиль 0 16 км н/о +24.0 +11.0 44 +25 +25 комфорт 964.8
штиль 0 16 км ясно +23.0 +11.0 47 +25 +26 комфорт 965.2
штиль 0 16 км ясно +22.0 +11.0 50 +24 +25 комфорт 965.2
штиль 0 16 км ясно +20.0 +12.0 60 +21 +21 комфорт 965.5
штиль 0 16 км ясно +19.0 +13.0 68 +20 +20 965.5
штиль 0 16 км ясно +18.0 +13.0 73 +18 +18 965.8
штиль 0 16 км ясно +17.0 +13.0 77 +17 +17 966.1
штиль 0 16 км ясно +17.0 +13.0 77 +17 +17 966.4
штиль 0 16 км ясно +17.0 +13.0 77 +17 +17 966.4
штиль 0 16 км ясно +16.0 +13.0 82 +16 +16 966.4
штиль 0 16 км ясно +16.0 +13.0 82 +16 +16 966.4
В 2 16 км ясно +16.0 +14.0 88 +16 +16 966.4
штиль 0 16 км ясно +15.0 +13.0 88 +15 +15 966.4
штиль 0 16 км ясно +15.0 +13.0 88 +15 +15 966.4
штиль 0 16 км ясно +15.0 +13.0 88 +15 +15 966.4
штиль 0 16 км ясно +14.0 +13.0 94 +14 +14 966.4
штиль 0 16 км ясно +14.0 +13.0 94 +14 +14 967.1
штиль 0 16 км ясно +14.0 +13.0 94 +14 +14 966.8
штиль 0 16 км ясно +14.0 +13.0 94 +14 +14 967.1
штиль 0 16 км ясно +13.0 +13.0 100 +12 +12 967.1
штиль 0 16 км ясно +13.0 +13.0 100 +12 +12 967.1
штиль 0 16 км ясно +13.0 +13.0 100 +12 +12 967.4
В 2 16 км ясно +13.0 +13.0 100 +12 +12 967.4
штиль 0 16 км ясно +13.0 +13.0 100 +12 +12 967.4
штиль 0 16 км ясно +12.0 +12.0 100 +11 +11 966.8
штиль 0 16 км ясно +13.0 +13.0 100 +12 +12 966.8
штиль 0 16 км ясно +12.0 +12.0 100 +11 +11 966.4
штиль 0 16 км ясно +12.0 +12.0 100 +11 +11 966.4
Местоположение метеостанции Indiana County Airport: широта 40.6333 долгота -79.1000 высота над уровнем моря 429 м.
В архиве по умолчанию представлена погода в Индиане за последние 1-2 суток. Обновление информации о фактической погоде в базе происходит ежечасно! Архивные данные за месяц целиком и за предыдущие месяцы Вы можете получить, выбрав интересующий диапазон дат из раскрывающегося списка и нажав кнопку "Ввод!".
Внимание! Архив погоды МЕТАР в базе сайта по станциям, не включенным в климатический монитор, хранится не более 60 дней. Нет смысла пытаться выбрать более раннюю дату.
*Определитесь, кто Вы:
Внимание! Время в таблицах - местное (без учета летнего времени). Для получения всемирного времени необходимо вычесть поправку, которая равна -5 ч.
Смотрите также архив погоды в соседних городах и на ближайших метеорологических станциях:
Партнеры нашего сайта:      
Пояснения к столбцам:
  • Ветер - указаны скорость ветра в м/с - средняя за 10 мин, порывы в срок и между сроками (в фигурных скобках) и направление, откуда дует ветер: С - северный,
  • СВ - северо-восточный, В - восточный, ЮВ - юго-восточный, Ю - южный, ЮЗ - юго-западный, З - западный, СЗ - северо-западный.
  • Видимость - горизонтальная дальность видимости в метрах или километрах. При видимости от 1 до 10 км при отсутствии осадков обычно наблюдается дымка, при ухудшении видимости до 1 км и менее - туман. В сухую погоду видимость может ухудшаться дымом, пылью или мглою.
  • Явления - указаны атмосферные явления, наблюдавшиеся в срок или в последний час перед сроком; фигурными скобками обозначены явления, наблюдавшиеся между сроками (за 1-3 часа до срока); квадратными скобками обозначены град или гололедные отложения с указанием их диаметра в мм.
  • Облачность - указаны через наклонную черту общая и нижняя облачность в баллах и высота нижней границы облаков в метрах; квадратными скобками обозначены формы облаков: Ci - перистые, Cs - перисто-слоистые, Cc - перисто-кучевые, Ac - высококучевые, As - высокослоистые, Sc - слоисто-кучевые, Ns - слоисто-дождевые, Cu - кучевые, Cb - кучево-дождевые. Подробнее классификацию облаков см. в Атласе облаков (PDF).
  • T - Температура воздуха - температура, измеренная на высоте 2 м над землей.
  • Td - Температура точки росы - температура, при понижении до которой содержащийся в воздухе водяной пар достигнет насыщения.
  • f - Относительная влажность воздуха - влажноcть воздуха, измеренная на высоте 2 м над землей.
  • Te - Эффективная температура - температура, которую ощущает одетый по сезону человек в тени. Характеристика душности погоды. При расчете учитывается влияние влажности воздуха и скорости ветра на теплоощущения человека.
  • Tes - Эффективная температура на солнце - температура, которую ощущает человек, с поправкой на солнечный нагрев. Характеристика знойности погоды. Зависит от высоты солнца над горизонтом, облачности и скорости ветра. Ночью, в пасмурную погоду, а также при ветре 12 м/с и более поправка равна нулю.
  • P - Атмосферное давление - приведенное к уровню моря атмосферное давление.
  • Po - Атмосферное давление - измеренное на уровне метеостанции атмосферное давление.
  • Tmin - Минимальная температура - минимум температуры воздуха на высоте 2 м над землей.
  • Tmax - Максимальная температура - максимум температуры воздуха на высоте 2 м над землей.
  • R - Количество осадков - Количество выпавших осадков за период времени, мм. При наведении курсора мыши на число - период времени, за который выпало указанное количество осадков.
  • R24 - Количество осадков - Количество выпавших осадков за 24 часа, мм.
  • S - Снежный покров - Высота снежного покрова, см. При наведении курсора мыши на число - состояние снежного покрова и степень покрытия местности в баллах.